Regional Weather Roundup
Issued by NWS Newport/Morehead, NC

Current Version | Previous Version | Graphics & Text | Print | Product List | Glossary Off
Versions: 1 2 3 4 5 6 7 8 9 10 11 12 13 14 15 16 17 18 19 20 21 22 23 24 25 26 27 28 29 30 31 32 33 34 35 36 37 38 39 40 41 42 43 44 45 46 47 48 49 50

000
ASUS42 KMHX 062024
RWRMHX
WEATHER ROUNDUP FOR EASTERN NORTH CAROLINA
NATIONAL WEATHER SERVICE NEWPORT/MOREHEAD CITY NC
400 PM EDT WED MAY 06 2015

NOTE: "FAIR" INDICATES FEW OR NO CLOUDS BELOW 12,000 FEET
WITH NO SIGNIFICANT WEATHER AND/OR OBSTRUCTIONS TO VISIBILITY

NCZ015>017-031-032-045>047-102-103-062100-
NORTH COAST

CITY           SKY/WX    TMP DP  RH WIND       PRES   REMARKS
EDENTON        PTSUNNY   76  60  57 E7        30.17F
ELIZABETH CITY CLOUDY    74  57  55 SE9       30.19F
KITTY HAWK     CLOUDY    70  56  61 E6        30.19F
MANTEO         CLOUDY    72  58  61 E9        30.20F

$$

NCZ045>047-081-094-103-104-062100-
CENTRAL COAST

CITY           SKY/WX    TMP DP  RH WIND       PRES   REMARKS
FRISCO         CLOUDY    69  57  65 E9        30.18F
SWANQUARTER      N/A     72 N/A N/A E9G17     30.12F

$$

NCZ095-097-098-100-101-062100-
SOUTHERN COAST

CITY           SKY/WX    TMP DP  RH WIND       PRES   REMARKS
BEAUFORT       CLOUDY    72  59  63 E8        30.16F
CEDAR ISLAND     N/A     72 N/A N/A E14       30.21S
JACKSONVILLE   CLOUDY    73  58  59 SE13      30.15F
PINEY ISLAND   CLOUDY   N/A N/A N/A E9        30.16F
WILMINGTON     CLOUDY    72  57  59 E16       30.15F


$$

NCZ011>013-027>030-043-044-078>080-089-090>093-098-062100-
COASTAL PLAIN

CITY           SKY/WX    TMP DP  RH WIND       PRES   REMARKS
AHOSKIE        CLOUDY    77  52  41 E5        30.17F
CLINTON        PTSUNNY   80  55  41 E7        30.15F
ELIZABETHTOWN  PTSUNNY   79  50  36 E7        30.13F
GOLDSBORO      CLOUDY    79  55  42 VRB7      30.13F
GREENVILLE     CLOUDY    79  55  44 SE9       30.18F
HAVELOCK       CLOUDY    73  60  63 E9        30.17F
KENANSVILLE    CLOUDY    78  46  31 E7        30.16F
KINSTON        CLOUDY    79  52  38 E8        30.16F
NEW BERN       CLOUDY    74  57  55 E8        30.17F
RICHLANDS      CLOUDY    75  55  50 E9        30.15F
ROCKY MOUNT    PTSUNNY   80  56  43 E7        30.16F
WASHINGTON     CLOUDY    74  56  52 SE8       30.17F
WHITEVILLE     PTSUNNY   78  54  42 E8        30.13F

$$

AMZ130-135-150-152-154-156-158-170-250-252-270-ANZ085-086-088-633-658-670-062100-
MARINE OBSERVATIONS

STATION/POSITION TIME  TEMP    WIND        PRES    WAVE   SWELL
                       AIR SEA DIR/SP/G            HT/PER HT/PER
                 (UTC) (F)     (DEG/KT/KT) (MB)    (FT/S) (FT/S)
CHESAPEAKE LIGHT 2000   65     160/ 14/ 14 1022.6
64 E VA BEACH    1950   66 63  160/  4/  4 1022.5    2/ 8   2/ 8
DUCK             2000   65 51  100/ 11/ 11 1021.4
2 E DUCK         1911      60                N/A     2/10
OREGON INLET     2000   68 70   50/  8/ 10 1022.2
13E OREGON INLT  2000      64                N/A     2/ 7
HATTERAS CG      1906   71 67   90/  5/  8 1022.1
DIAMOND BUOY     1950   71 74  100/ 12/ 14 1021.9    4/ 6   3/ 6
CAPE LOOKOUT     2000   69      80/  9/ 10 1020.8
BEAUFORT LAB     2000           90/  9/ 12 1020.3
27 SE WRIGHTSVLE 2000   68 71   70/ 16/ 19   N/A
5 SE WRIGHTSVLE  1908   69 68   70/ 14/ 17 1021.2
225 S CAPE HAT   1950   68 70   90/ 23/ 33 1016.3   10/ 8   2/11
41 SE CHARLESTON 1950   73 73   40/ 21/ 25 1017.8    8/ 8

$$


USA.gov is the U.S. government's official web portal to all federal, state and local government web resources and services.